| time (UTC) | temp F | wind direction | speed MPH | gust MPH | rain 1hr in | rain 24hr in | rain mn in | humidity % | barometer mb |
| 20260506214506 | 46 | 315 | 1.0 | 5.0 | 0.00 | 0.18 | 0.13 | 83 | 1013.1 |
| 20260506213127 | 46 | 316 | 2.0 | 5.0 | 0.00 | 0.18 | 0.13 | 82 | 1013.0 |
| 20260506211518 | 47 | 317 | 2.0 | 4.0 | 0.00 | 0.18 | 0.13 | 81 | 1013.0 |
| 20260506210016 | 48 | 316 | 2.0 | 4.0 | 0.00 | 0.18 | 0.13 | 80 | 1012.9 |
| 20260506204520 | 48 | 317 | 2.0 | 4.0 | 0.00 | 0.27 | 0.13 | 79 | 1012.8 |
| 20260506203017 | 49 | 316 | 1.0 | 4.0 | 0.00 | 0.27 | 0.13 | 78 | 1012.7 |
| 20260506201519 | 49 | 315 | 2.0 | 4.0 | 0.00 | 0.27 | 0.13 | 77 | 1012.6 |
| 20260506200010 | 50 | 315 | 1.0 | 4.0 | 0.00 | 0.27 | 0.13 | 76 | 1012.5 |
| 20260506194515 | 50 | 311 | 2.0 | 5.0 | 0.00 | 0.39 | 0.13 | 75 | 1012.3 |
| 20260506193006 | 51 | 312 | 3.0 | 5.0 | 0.00 | 0.39 | 0.13 | 74 | 1012.1 |
| 20260506191505 | 52 | 304 | 2.0 | 5.0 | 0.00 | 0.39 | 0.13 | 73 | 1011.8 |
| 20260506190006 | 52 | 320 | 3.0 | 8.0 | 0.00 | 0.39 | 0.13 | 71 | 1011.7 |
| 20260506184605 | 53 | 314 | 3.0 | 8.0 | 0.00 | 0.46 | 0.13 | 70 | 1011.6 |
| 20260506183019 | 53 | 300 | 6.0 | 11.0 | 0.00 | 0.46 | 0.13 | 68 | 1011.4 |
| 20260506181517 | 54 | 315 | 7.0 | 13.0 | 0.00 | 0.46 | 0.13 | 67 | 1011.3 |
| 20260506180016 | 54 | 306 | 4.0 | 12.0 | 0.00 | 0.46 | 0.13 | 69 | 1011.2 |
| 20260506174515 | 54 | 307 | 8.0 | 13.0 | 0.00 | 0.53 | 0.13 | 70 | 1011.0 |
| 20260506173013 | 54 | 311 | 8.0 | 13.0 | 0.00 | 0.53 | 0.13 | 70 | 1010.9 |
| 20260506171512 | 55 | 310 | 11.0 | 18.0 | 0.00 | 0.53 | 0.13 | 67 | 1010.8 |
| 20260506170011 | 57 | 305 | 8.0 | 17.0 | 0.00 | 0.53 | 0.13 | 65 | 1010.5 |
| 20260506164508 | 58 | 331 | 5.0 | 13.0 | 0.00 | 0.55 | 0.13 | 67 | 1010.6 |
| 20260506163019 | 58 | 11 | 8.0 | 14.0 | 0.00 | 0.55 | 0.13 | 68 | 1010.4 |
| 20260506161506 | 59 | 302 | 7.0 | 16.0 | 0.00 | 0.55 | 0.13 | 62 | 1010.5 |
| 20260506160016 | 58 | 342 | 9.0 | 16.0 | 0.00 | 0.55 | 0.13 | 62 | 1010.4 |
| 20260506154517 | 59 | 328 | 10.0 | 15.0 | 0.00 | 0.61 | 0.13 | 61 | 1010.5 |
| 20260506153015 | 58 | 313 | 8.0 | 18.0 | 0.00 | 0.61 | 0.13 | 62 | 1010.4 |
| 20260506151515 | 57 | 295 | 8.0 | 14.0 | 0.00 | 0.61 | 0.13 | 67 | 1010.5 |
| 20260506150014 | 58 | 294 | 12.0 | 16.0 | 0.00 | 0.61 | 0.13 | 61 | 1010.4 |
| 20260506144512 | 58 | 280 | 6.0 | 13.0 | 0.00 | 0.71 | 0.13 | 64 | 1010.4 |
| 20260506143013 | 58 | 271 | 5.0 | 12.0 | 0.00 | 0.71 | 0.13 | 64 | 1010.4 |
| 20260506141509 | 57 | 317 | 5.0 | 12.0 | 0.00 | 0.71 | 0.13 | 66 | 1010.5 |
| 20260506140010 | 57 | 331 | 5.0 | 12.0 | 0.00 | 0.71 | 0.13 | 65 | 1010.3 |
| 20260506134523 | 57 | 331 | 6.0 | 14.0 | 0.00 | 0.83 | 0.13 | 65 | 1010.5 |
| 20260506133004 | 57 | 296 | 8.0 | 14.0 | 0.00 | 0.83 | 0.13 | 65 | 1010.5 |
| 20260506131605 | 57 | 277 | 1.0 | 7.0 | 0.00 | 0.83 | 0.13 | 73 | 1010.6 |
| 20260506130020 | 56 | 304 | 1.0 | 8.0 | 0.00 | 0.83 | 0.13 | 75 | 1010.6 |
| 20260506124551 | 55 | 294 | 2.0 | 8.0 | 0.00 | 0.88 | 0.13 | 76 | 1010.5 |
| 20260506123008 | 54 | 315 | 5.0 | 10.0 | 0.00 | 0.88 | 0.13 | 76 | 1010.4 |
| 20260506121506 | 54 | 339 | 3.0 | 10.0 | 0.00 | 0.88 | 0.13 | 77 | 1010.4 |
| 20260506120008 | 54 | 313 | 5.0 | 10.0 | 0.00 | 0.88 | 0.13 | 77 | 1010.5 |
| 20260506114509 | 53 | 336 | 4.0 | 13.0 | 0.00 | 0.92 | 0.13 | 80 | 1010.6 |
| 20260506113004 | 53 | 301 | 4.0 | 12.0 | 0.00 | 0.92 | 0.13 | 81 | 1010.5 |
| 20260506111506 | 52 | 340 | 7.0 | 13.0 | 0.00 | 0.92 | 0.13 | 82 | 1010.5 |
| 20260506110105 | 51 | 313 | 5.0 | 14.0 | 0.00 | 0.92 | 0.13 | 83 | 1010.4 |
| 20260506104517 | 51 | 331 | 6.0 | 14.0 | 0.00 | 0.96 | 0.13 | 85 | 1010.5 |
| 20260506103014 | 50 | 308 | 8.0 | 13.0 | 0.00 | 0.96 | 0.13 | 87 | 1010.6 |
| 20260506101511 | 50 | 355 | 6.0 | 13.0 | 0.00 | 0.96 | 0.13 | 89 | 1010.6 |
| 20260506100010 | 50 | 311 | 6.0 | 14.0 | 0.00 | 0.96 | 0.13 | 90 | 1010.5 |
| 20260506094507 | 49 | 5 | 6.0 | 15.0 | 0.00 | 1.01 | 0.13 | 92 | 1010.4 |
| 20260506093006 | 49 | 10 | 8.0 | 13.0 | 0.00 | 1.01 | 0.13 | 93 | 1010.3 |
| 20260506091508 | 49 | 355 | 5.0 | 13.0 | 0.00 | 1.01 | 0.13 | 94 | 1010.2 |
| 20260506090004 | 48 | 303 | 9.0 | 12.0 | 0.00 | 1.01 | 0.13 | 94 | 1010.1 |
| 20260506084503 | 48 | 344 | 6.0 | 14.0 | 0.00 | 1.05 | 0.13 | 95 | 1009.9 |
| 20260506083105 | 48 | 355 | 7.0 | 11.0 | 0.00 | 1.05 | 0.13 | 95 | 1009.7 |
| 20260506081521 | 47 | 317 | 5.0 | 14.0 | 0.00 | 1.05 | 0.13 | 96 | 1009.5 |
| 20260506073014 | 47 | 344 | 9.0 | 14.0 | 0.00 | 1.08 | 0.13 | 96 | 1009.1 |
| 20260506071510 | 47 | 348 | 5.0 | 12.0 | 0.01 | 1.08 | 0.13 | 96 | 1009.0 |
| 20260506061506 | 47 | 330 | 6.0 | 13.0 | 0.00 | 1.07 | 0.12 | 96 | 1008.5 |
| 20260506044511 | 47 | 300 | 7.0 | 13.0 | 0.02 | 1.06 | 0.11 | 96 | 1007.7 |
| 20260506043013 | 47 | 305 | 5.0 | 12.0 | 0.02 | 1.06 | 0.10 | 96 | 1007.6 |
| 20260506041508 | 47 | 309 | 5.0 | 10.0 | 0.02 | 1.06 | 0.10 | 96 | 1007.6 |
| 20260506040019 | 47 | 321 | 6.0 | 13.0 | 0.02 | 1.05 | 0.09 | 96 | 1007.6 |
| 20260506034505 | 47 | 309 | 7.0 | 14.0 | 0.02 | 1.05 | 0.09 | 96 | 1007.6 |
| 20260506033104 | 48 | 342 | 4.0 | 14.0 | 0.02 | 1.04 | 0.09 | 96 | 1007.6 |
| 20260506031536 | 48 | 350 | 7.0 | 12.0 | 0.02 | 1.04 | 0.09 | 96 | 1007.6 |
| 20260506030013 | 48 | 319 | 4.0 | 9.0 | 0.02 | 1.03 | 0.08 | 96 | 1007.6 |
| 20260506024518 | 48 | 342 | 3.0 | 9.0 | 0.02 | 1.02 | 0.07 | 96 | 1007.6 |
| 20260506023011 | 48 | 336 | 4.0 | 10.0 | 0.02 | 1.02 | 0.07 | 96 | 1007.6 |
| 20260506021512 | 49 | 360 | 6.0 | 12.0 | 0.02 | 1.02 | 0.06 | 96 | 1007.7 |
| 20260506020006 | 49 | 326 | 4.0 | 12.0 | 0.02 | 1.02 | 0.06 | 96 | 1007.6 |
| 20260506014510 | 49 | 310 | 5.0 | 10.0 | 0.02 | 1.01 | 0.06 | 97 | 1007.6 |
| 20260506013012 | 50 | 315 | 4.0 | 10.0 | 0.02 | 1.00 | 0.05 | 97 | 1007.5 |
| 20260506011512 | 50 | 302 | 6.0 | 12.0 | 0.02 | 1.00 | 0.05 | 96 | 1007.6 |
| 20260506010030 | 50 | 317 | 6.0 | 12.0 | 0.02 | 1.00 | 0.05 | 97 | 1007.5 |
| 20260506004511 | 50 | 325 | 4.0 | 8.0 | 0.02 | 0.99 | 0.04 | 97 | 1007.6 |
| 20260506003008 | 50 | 298 | 4.0 | 9.0 | 0.01 | 0.98 | 0.03 | 97 | 1007.7 |
| 20260506001505 | 50 | 312 | 4.0 | 8.0 | 0.01 | 0.98 | 0.03 | 96 | 1007.6 |
| 20260506000013 | 50 | 310 | 2.0 | 5.0 | 0.01 | 0.98 | 0.03 | 96 | 1007.7 |
| 20260505234525 | 50 | 309 | 3.0 | 8.0 | 0.00 | 0.98 | 0.02 | 96 | 1007.8 |
| 20260505233017 | 50 | 313 | 5.0 | 9.0 | 0.01 | 0.98 | 0.02 | 96 | 1007.8 |
| 20260505231520 | 50 | 300 | 5.0 | 10.0 | 0.02 | 0.98 | 0.02 | 96 | 1007.8 |
| 20260505230022 | 50 | 304 | 4.0 | 9.0 | 0.02 | 0.98 | 0.02 | 96 | 1007.8 |
| 20260505224518 | 50 | 321 | 3.0 | 6.0 | 0.04 | 0.98 | 0.02 | 96 | 1007.8 |
| 20260505223017 | 50 | 308 | 5.0 | 13.0 | 0.04 | 0.97 | 0.02 | 97 | 1007.7 |
| 20260505221529 | 50 | 306 | 6.0 | 14.0 | 0.05 | 0.96 | 0.01 | 96 | 1007.7 |
| 20260505220016 | 50 | 311 | 8.0 | 15.0 | 0.06 | 0.95 | 0.00 | 96 | 1007.8 |